• Join FlightAware (Why Join?)
  • Login
  • US Flag GB Flag 
07:58 EDT


 

Airport Tracker/Info


-or-


 

Live Flight TrackerFlight Track Log ✈ N449ND ✈ 24-Jun-2014 ✈ KFPR - KPBI

Flight Track Log - Related Links

Times and Time Zones

All times are in EDT time to prevent confusion due to time zone crossing. See the N449ND flight status page for this flight to view local times or setup timezone preferences in your user account.

Time Position Orientation Groundspeed Altitude Reporting Facility
EDT Latitude Longitude Course Direction KTS MPH feet Rate Location/Type
16:08 27.4817 -80.3464 188° South 80 92 800  Level Miami Center
16:09 27.4597 -80.3500 188° South 82 94 1,300 420 Climbing Miami Center
16:10 27.4353 -80.3514 183° South 82 94 1,700 360 Climbing Miami Center
16:11 27.4178 -80.3692 222° Southwest 84 97 2,100 180 Climbing Miami Center
16:12 27.4003 -80.3936 231° Southwest 90 104 2,100 180 Level Miami Center
16:13 27.3922 -80.4231 253° West 96 110 2,500 420 Climbing Miami Center
16:14 27.3864 -80.4503 256° West 89 102 3,000 360 Climbing Miami Center
16:15 27.3811 -80.4753 257° West 88 101 3,300 300 Climbing Miami Center
16:16 27.3728 -80.5019 251° West 87 100 3,700 360 Climbing Miami Center
16:17 27.3653 -80.5294 253° West 89 102 4,100 180 Climbing Miami Center
16:18 27.3575 -80.5597 254° West 93 107 4,100 -60 Level Miami Center
16:19 27.3333 -80.5750 209° Southwest 103 119 4,000  Descending Miami Center
16:20 27.3078 -80.5844 198° South 102 117 4,100  Climbing Miami Center
16:21 27.2781 -80.5922 193° South 103 119 4,000  Descending Miami Center
16:22 27.2486 -80.5992 192° South 103 119 4,100  Climbing Miami Center
16:23 27.2189 -80.6036 188° South 103 119 4,100 -60 Level Miami Center
16:24 27.1906 -80.6125 196° South 103 119 4,000  Descending Miami Center
16:26 27.1650 -80.6161 187° South 100 115 4,100  Climbing Miami Center
16:27 27.1372 -80.6222 191° South 98 113 4,100  Level Miami Center
16:28 27.1064 -80.6239 183° South 102 117 4,100  Level Miami Center
16:29 27.0778 -80.6203 174° South 100 115 4,100  Level Miami Center
16:30 27.0467 -80.6153 172° South 105 121 4,100 -60 Level Miami Center
16:31 27.0197 -80.6083 167° South 103 119 4,000 -60 Descending Miami Center
16:32 26.9906 -80.6083 180° South 102 117 4,000 -300 Level Miami Center
16:33 26.9606 -80.6058 176° South 104 120 3,500 -480 Descending Miami Center
16:34 26.9406 -80.5844 136° Southeast 100 115 3,100 -240 Descending Miami Center
16:35 26.9206 -80.5594 132° Southeast 100 115 3,100  Level Miami Center
16:36 26.9019 -80.5344 130° Southeast 100 115 3,100  Level Miami Center
16:37 26.8825 -80.5133 136° Southeast 100 115 3,100  Level Miami Center
16:38 26.8636 -80.4881 130° Southeast 101 116 3,100  Level Miami Center
16:39 26.8439 -80.4664 136° Southeast 98 113 3,100  Level Miami Center
16:40 26.8178 -80.4578 164° South 93 107 3,100 -300 Level Miami Center
16:41 26.7892 -80.4558 177° South 96 110 2,600 -540 Descending Miami Center
16:42 26.7611 -80.4539 176° South 100 115 2,100 -300 Descending Miami Center
16:43 26.7311 -80.4486 171° South 102 117 2,100  Level Miami Center
16:44 26.7119 -80.4289 137° Southeast 99 114 2,100  Level Miami Center
16:45 26.6975 -80.4028 122° Southeast 99 114 2,100  Level Miami Center
16:46 26.6947 -80.3700 95° East 99 114 2,100  Level Miami Center
16:47 26.6931 -80.3378 93° East 103 119 2,100  Level Miami Center
16:48 26.6928 -80.3042 91° East 103 119 2,100  Level Miami Center
16:49 26.6911 -80.2742 94° East 100 115 2,100  Level Miami Center
16:50 26.6894 -80.2444 94° East 98 113 2,100 -120 Level Miami Center
16:51 26.6881 -80.2153 93° East 88 101 1,900 -300 Descending Miami Center
16:52 26.6867 -80.1889 93° East 87 100 1,500 -480 Descending Miami Center
16:53 26.6847 -80.1608 94° East 85 98 1,000 -300 Descending Miami Center
16:54 26.6839 -80.1383 92° East 85 98 900 -120 Descending Miami Center
16:56 26.6745 -80.1083 109° East  Level FlightAware Approximate
17:03 26.6832 -80.0956 106° East  Level Estimated